Location: Balagbag Mahabang Kahoy
(14.1562°N, 120.9200°E)
Time: 04:43:28
(UTC+00:00)

ATLAS 2AS CENTAUR RB - Pass Details

Date: 16 January 2026
Orbit: 301 x 22241 km, 12.7° (Epoch: 14 February)

Event Time Altitude Azimuth Distance (km) Brightness Sun altitude
Exits shadow 19:48:19 41° 206° (SSW) 2,317 4.2 -36.9°
Maximum altitude 19:50:24 46° 177° (S) 2,682 4.7 -36.4°
Drops below altitude 10° 20:36:56 10° 112° (ESE) 15,909 9.7 -25.5°
Sets 23:26:58 0° 105° (ESE) 27,164 11.7 13.1°
